Location: Bjelajci
(45.0103°N, 16.1758°E)
Time: 09:55:26
(UTC+00:00)

Okean 1 - Pass Details

Date: 14 July 2020
Orbit: 538 x 556 km, 82.5° (Epoch: 07 August)

Event Time Altitude Azimuth Distance (km) Brightness Sun altitude
Rises 00:17:39 0° 348° (NNW) 2,706 7.8 -21.1°
Reaches altitude 10° 00:19:49 10° 345° (NNW) 1,810 6.7 -21.0°
Maximum altitude 00:23:45 63° 264° (W) 606 3.3 -20.7°
Enters shadow 00:24:00 61° 242° (WSW) 616 3.2 -20.7°
